Flag for U.S.A. Weather past 2 weeks in Sitka, Alaska, U.S.A.

Now
56 °F

Scattered clouds.


Feels Like: 53 °F
Forecast: 48 / 58 °F
Wind: 13 mph from Northwest

Location: Sitka Airport

Current Time: May 28, 2015 at 2:28:50 PM

Latest Report: May 28, 2015 at 1:53 PM


Visibility: 10 mi

Pressure: 30.22 "Hg

Humidity: 75%

Dew point: 48 °F

Location of SitkaLocation

Historic Weather in Sitka — Graph

°F

Sitka temperature yesterday

Maximum temperature yesterday: 53 °F (at 2:53 PM)
Minimum temperature yesterday: 49 °F (at 5:53 AM)
Average temperature yesterday: 51 °F

Past Weeks' High & Low Weather Summary

 TemperatureHumidityPressure
High61 °F (May 25, 2:53 PM)90% (May 17, 5:53 AM)30.28 "Hg (May 17, 5:53 AM)
Low46 °F (May 14, 2:53 AM)62% (May 13, 5:53 PM)29.92 "Hg (May 15, 5:53 AM)
Average52 °F79%30.12 "Hg
* Reported May 13 12:53 PM — May 28 12:53 PM, Sitka, Weather by CustomWeather, © 2015

Note: Actual official high and low records may vary slightly from our data, if they occured in-between our weather recording intervals... More about our weather records

Advertising

Sitka weather history for previous 24 hours

 ConditionsComfort  
Time TempWeatherWind HumidityBarometerVisibility
12:53 PM
Thu, May 28
57 °FOvercast.14 mph72%30.22 "Hg10 mi
11:53 AM57 °FPartly sunny.10 mph69%30.23 "Hg10 mi
10:53 AM54 °FPartly sunny.10 mph77%30.23 "Hg10 mi
9:53 AM53 °FPartly sunny.7 mph74%30.23 "Hg10 mi
8:53 AM52 °FPartly sunny.15 mph77%30.23 "Hg10 mi
7:53 AM53 °FPartly sunny.13 mph72%30.23 "Hg10 mi
6:53 AM51 °FPartly sunny.13 mph74%30.24 "Hg10 mi
6:04 AM50 °FPartly sunny.N/A83%30.25 "Hg10 mi
5:53 AM50 °FScattered clouds.14 mph83%30.25 "Hg10 mi
4:53 AM50 °FOvercast.13 mph83%30.25 "Hg10 mi
3:53 AM50 °FMostly cloudy.10 mph80%30.25 "Hg10 mi
2:53 AM50 °FOvercast.8 mph83%30.27 "Hg10 mi
1:53 AM50 °FOvercast.9 mph80%30.27 "Hg10 mi
12:53 AM50 °FOvercast.8 mph80%30.27 "Hg10 mi
11:53 PM
Wed, May 27
49 °FOvercast.7 mph84%30.27 "Hg10 mi
10:53 PM50 °FLight rain. Mostly cloudy.9 mph80%30.27 "Hg10 mi
9:53 PM51 °FOvercast.6 mph69%30.27 "Hg10 mi
8:53 PM51 °FMostly cloudy.10 mph71%30.27 "Hg10 mi
7:53 PM51 °FMostly cloudy.13 mph71%30.27 "Hg10 mi
6:53 PM52 °FPartly sunny.9 mph66%30.26 "Hg10 mi
5:53 PM52 °FMostly cloudy.5 mph66%30.27 "Hg10 mi
4:53 PM52 °FMostly cloudy.6 mph69%30.27 "Hg10 mi
3:53 PM52 °FMostly cloudy.10 mph69%30.28 "Hg10 mi
2:53 PM53 °FMostly cloudy.15 mph69%30.28 "Hg10 mi
Weather by CustomWeather, © 2015

See weather overviewHow to use our weather pages